| time (UTC) | temp F | wind direction | speed knots | gust knots | rain 1hr in | rain 24hr in | rain mn in | humidity % | barometer mb |
| 20260507113849 | 70 | 101 | 0.0 | 0.0 | 0.00 | 0.00 | 0.00 | 84 | 1018.3 |
| 20260507113349 | 70 | 37 | 0.9 | 1.7 | 0.00 | 0.00 | 0.00 | 84 | 1018.5 |
| 20260507112849 | 70 | 55 | 0.9 | 1.7 | 0.00 | 0.00 | 0.00 | 84 | 1018.3 |
| 20260507112352 | 70 | 355 | 1.7 | 3.5 | 0.00 | 0.00 | 0.00 | 84 | 1018.6 |
| 20260507111849 | 70 | 31 | 0.0 | 0.0 | 0.00 | 0.00 | 0.00 | 83 | 1018.5 |
| 20260507111352 | 70 | 72 | 0.9 | 1.7 | 0.00 | 0.00 | 0.00 | 84 | 1018.3 |
| 20260507110849 | 70 | 102 | 0.0 | 0.0 | 0.00 | 0.00 | 0.00 | 84 | 1018.0 |
| 20260507110348 | 70 | 4 | 0.9 | 2.6 | 0.00 | 0.00 | 0.00 | 84 | 1018.2 |
| 20260507105849 | 70 | 118 | 0.0 | 0.0 | 0.00 | 0.00 | 0.00 | 84 | 1018.1 |
| 20260507105353 | 70 | 127 | 0.0 | 0.0 | 0.00 | 0.00 | 0.00 | 83 | 1018.1 |
| 20260507104849 | 70 | 130 | 0.9 | 1.7 | 0.00 | 0.00 | 0.00 | 83 | 1017.8 |
| 20260507104352 | 70 | 34 | 1.7 | 2.6 | 0.00 | 0.00 | 0.00 | 83 | 1018.0 |
| 20260507103849 | 70 | 12 | 1.7 | 2.6 | 0.00 | 0.00 | 0.00 | 83 | 1018.1 |
| 20260507103349 | 70 | 11 | 0.9 | 1.7 | 0.00 | 0.00 | 0.00 | 83 | 1017.8 |
| 20260507102849 | 70 | 119 | 0.0 | 0.0 | 0.00 | 0.00 | 0.00 | 83 | 1017.8 |
| 20260507102352 | 70 | 41 | 0.9 | 1.7 | 0.00 | 0.00 | 0.00 | 83 | 1017.9 |
| 20260507101848 | 70 | 107 | 0.9 | 1.7 | 0.00 | 0.00 | 0.00 | 83 | 1017.9 |
| 20260507101352 | 70 | 137 | 0.0 | 0.0 | 0.00 | 0.00 | 0.00 | 83 | 1017.9 |
| 20260507100848 | 70 | 82 | 0.0 | 0.0 | 0.00 | 0.00 | 0.00 | 83 | 1017.8 |
| 20260507100349 | 70 | 147 | 0.0 | 0.0 | 0.00 | 0.00 | 0.00 | 83 | 1017.7 |
| 20260507095849 | 70 | 90 | 0.9 | 1.7 | 0.00 | 0.00 | 0.00 | 83 | 1017.9 |
| 20260507095352 | 70 | 130 | 0.0 | 0.0 | 0.00 | 0.00 | 0.00 | 82 | 1017.9 |
| 20260507094849 | 70 | 144 | 0.9 | 1.7 | 0.00 | 0.00 | 0.00 | 82 | 1018.0 |
| 20260507094352 | 70 | 120 | 0.0 | 0.0 | 0.00 | 0.00 | 0.00 | 82 | 1018.0 |
| 20260507093849 | 70 | 135 | 0.0 | 0.0 | 0.00 | 0.00 | 0.00 | 82 | 1018.0 |
| 20260507093350 | 70 | 136 | 0.0 | 0.0 | 0.00 | 0.00 | 0.00 | 82 | 1018.1 |
| 20260507092849 | 70 | 108 | 0.0 | 0.0 | 0.00 | 0.00 | 0.00 | 82 | 1018.2 |
| 20260507092353 | 70 | 115 | 0.0 | 0.0 | 0.00 | 0.00 | 0.00 | 82 | 1018.3 |
| 20260507091849 | 70 | 127 | 0.0 | 0.0 | 0.00 | 0.00 | 0.00 | 82 | 1018.3 |
| 20260507091353 | 70 | 93 | 1.7 | 2.6 | 0.00 | 0.00 | 0.00 | 82 | 1018.0 |
| 20260507090849 | 71 | 129 | 0.9 | 1.7 | 0.00 | 0.00 | 0.00 | 82 | 1017.9 |
| 20260507090349 | 70 | 82 | 0.0 | 0.0 | 0.00 | 0.00 | 0.00 | 82 | 1017.9 |
| 20260507085848 | 70 | 107 | 0.9 | 1.7 | 0.00 | 0.00 | 0.00 | 82 | 1018.0 |
| 20260507085352 | 70 | 24 | 1.7 | 3.5 | 0.00 | 0.00 | 0.00 | 82 | 1017.9 |
| 20260507084848 | 71 | 8 | 0.9 | 2.6 | 0.00 | 0.00 | 0.00 | 82 | 1017.7 |
| 20260507084352 | 71 | 112 | 0.0 | 0.0 | 0.00 | 0.00 | 0.00 | 82 | 1017.8 |
| 20260507083848 | 71 | 355 | 3.5 | 3.5 | 0.00 | 0.00 | 0.00 | 82 | 1017.9 |
| 20260507083349 | 71 | 131 | 0.0 | 0.0 | 0.00 | 0.00 | 0.00 | 82 | 1017.8 |
| 20260507082849 | 71 | 358 | 1.7 | 2.6 | 0.00 | 0.00 | 0.00 | 82 | 1017.7 |
| 20260507082352 | 71 | 112 | 0.0 | 0.0 | 0.00 | 0.00 | 0.00 | 82 | 1017.8 |
| 20260507081849 | 71 | 44 | 1.7 | 2.6 | 0.00 | 0.00 | 0.00 | 82 | 1017.9 |
| 20260507081352 | 71 | 122 | 0.0 | 0.0 | 0.00 | 0.00 | 0.00 | 82 | 1017.8 |
| 20260507080849 | 71 | 94 | 0.9 | 1.7 | 0.00 | 0.00 | 0.00 | 82 | 1017.7 |
| 20260507080349 | 71 | 129 | 0.0 | 0.0 | 0.00 | 0.00 | 0.00 | 82 | 1017.9 |
| 20260507075849 | 71 | 336 | 1.7 | 3.5 | 0.00 | 0.00 | 0.00 | 82 | 1018.2 |
| 20260507075353 | 72 | 341 | 0.9 | 2.6 | 0.00 | 0.00 | 0.00 | 82 | 1018.0 |
| 20260507074849 | 72 | 77 | 0.0 | 0.0 | 0.00 | 0.00 | 0.00 | 82 | 1018.0 |
| 20260507074353 | 72 | 21 | 1.7 | 2.6 | 0.00 | 0.00 | 0.00 | 82 | 1018.3 |
| 20260507073849 | 72 | 29 | 2.6 | 4.3 | 0.00 | 0.00 | 0.00 | 82 | 1018.1 |
| 20260507073349 | 72 | 72 | 0.0 | 0.0 | 0.00 | 0.00 | 0.00 | 82 | 1017.8 |
| 20260507072848 | 72 | 60 | 0.9 | 1.7 | 0.00 | 0.00 | 0.00 | 82 | 1018.1 |
| 20260507072352 | 72 | 13 | 0.9 | 1.7 | 0.00 | 0.00 | 0.00 | 82 | 1017.9 |
| 20260507071849 | 73 | 5 | 1.7 | 2.6 | 0.00 | 0.00 | 0.00 | 82 | 1017.6 |
| 20260507071352 | 73 | 134 | 0.9 | 1.7 | 0.00 | 0.00 | 0.00 | 82 | 1017.6 |
| 20260507070848 | 73 | 138 | 0.0 | 0.0 | 0.00 | 0.00 | 0.00 | 82 | 1017.8 |
| 20260507070349 | 73 | 99 | 0.9 | 1.7 | 0.00 | 0.00 | 0.00 | 81 | 1017.9 |
| 20260507065849 | 74 | 24 | 0.0 | 0.0 | 0.00 | 0.00 | 0.00 | 81 | 1018.3 |
| 20260507065352 | 74 | 42 | 0.9 | 1.7 | 0.00 | 0.00 | 0.00 | 82 | 1018.3 |
| 20260507064849 | 74 | 36 | 0.0 | 0.0 | 0.00 | 0.00 | 0.00 | 82 | 1018.3 |
| 20260507064352 | 74 | 90 | 0.0 | 0.0 | 0.00 | 0.00 | 0.00 | 82 | 1018.4 |
| 20260507063849 | 75 | 38 | 1.7 | 2.6 | 0.00 | 0.00 | 0.00 | 82 | 1018.5 |
| 20260507063349 | 75 | 68 | 0.9 | 1.7 | 0.00 | 0.00 | 0.00 | 82 | 1018.4 |
| 20260507062849 | 75 | 355 | 0.9 | 1.7 | 0.00 | 0.00 | 0.00 | 82 | 1018.3 |
| 20260507062352 | 75 | 9 | 1.7 | 2.6 | 0.00 | 0.00 | 0.00 | 82 | 1018.0 |
| 20260507061849 | 76 | 21 | 1.7 | 2.6 | 0.00 | 0.00 | 0.00 | 82 | 1017.8 |
| 20260507061519 | 76 | 74 | 0.0 | 0.0 | 0.00 | 0.00 | 0.00 | 82 | 1017.9 |
| 20260507061353 | 76 | 74 | 0.0 | 0.0 | 0.00 | 0.00 | 0.00 | 82 | 1017.9 |
| 20260507060849 | 76 | 21 | 0.9 | 1.7 | 0.00 | 0.00 | 0.00 | 82 | 1017.9 |
| 20260507060349 | 76 | 125 | 0.0 | 0.0 | 0.00 | 0.00 | 0.00 | 82 | 1017.8 |
| 20260507055851 | 77 | 166 | 1.7 | 3.5 | 0.00 | 0.00 | 0.00 | 82 | 1017.6 |
| 20260507055352 | 77 | 103 | 0.9 | 1.7 | 0.00 | 0.00 | 0.00 | 82 | 1017.9 |
| 20260507054848 | 77 | 65 | 2.6 | 3.5 | 0.00 | 0.00 | 0.00 | 82 | 1017.6 |
| 20260507054352 | 77 | 27 | 1.7 | 1.7 | 0.00 | 0.00 | 0.00 | 82 | 1017.7 |
| 20260507053849 | 78 | 1 | 0.9 | 2.6 | 0.00 | 0.00 | 0.00 | 82 | 1017.5 |
| 20260507053349 | 78 | 8 | 0.0 | 0.0 | 0.00 | 0.00 | 0.00 | 83 | 1017.9 |
| 20260507052849 | 78 | 89 | 0.0 | 0.0 | 0.00 | 0.00 | 0.00 | 83 | 1017.8 |
| 20260507052352 | 78 | 3 | 1.7 | 3.5 | 0.00 | 0.00 | 0.00 | 83 | 1017.7 |
| 20260507051849 | 79 | 334 | 1.7 | 2.6 | 0.00 | 0.00 | 0.00 | 83 | 1017.4 |
| 20260507051352 | 79 | 119 | 0.9 | 1.7 | 0.00 | 0.00 | 0.00 | 83 | 1017.5 |
| 20260507050849 | 79 | 62 | 1.7 | 3.5 | 0.00 | 0.00 | 0.00 | 82 | 1017.5 |
| 20260507050348 | 80 | 37 | 1.7 | 1.7 | 0.00 | 0.00 | 0.00 | 82 | 1017.5 |
| 20260507045849 | 80 | 52 | 1.7 | 2.6 | 0.00 | 0.00 | 0.00 | 82 | 1017.5 |
| 20260507045352 | 80 | 51 | 0.0 | 0.0 | 0.00 | 0.00 | 0.00 | 82 | 1017.5 |
| 20260507044848 | 80 | 107 | 0.0 | 0.0 | 0.00 | 0.00 | 0.00 | 82 | 1017.3 |
| 20260507044352 | 80 | 145 | 0.0 | 0.0 | 0.00 | 0.00 | 0.00 | 83 | 1017.4 |
| 20260507043848 | 80 | 146 | 0.0 | 0.0 | 0.00 | 0.00 | 0.00 | 83 | 1017.1 |
| 20260507043349 | 80 | 144 | 0.0 | 0.0 | 0.00 | 0.00 | 0.00 | 82 | 1017.0 |
| 20260507042848 | 80 | 146 | 0.0 | 0.0 | 0.00 | 0.00 | 0.00 | 82 | 1016.9 |
| 20260507042352 | 80 | 143 | 0.0 | 0.0 | 0.00 | 0.00 | 0.00 | 82 | 1016.8 |
| 20260507041848 | 80 | 150 | 0.0 | 0.0 | 0.00 | 0.00 | 0.00 | 82 | 1016.8 |
| 20260507041352 | 80 | 143 | 0.0 | 0.0 | 0.00 | 0.00 | 0.00 | 82 | 1016.8 |
| 20260507040849 | 80 | 141 | 0.0 | 0.0 | 0.00 | 0.00 | 0.00 | 82 | 1016.4 |
| 20260507040348 | 80 | 147 | 0.0 | 0.0 | 0.00 | 0.00 | 0.00 | 81 | 1016.7 |
| 20260507035849 | 81 | 148 | 0.0 | 0.0 | 0.00 | 0.00 | 0.00 | 81 | 1016.6 |
| 20260507035353 | 81 | 148 | 0.0 | 0.0 | 0.00 | 0.00 | 0.00 | 81 | 1016.2 |
| 20260507034854 | 81 | 143 | 0.0 | 0.0 | 0.00 | 0.00 | 0.00 | 81 | 1016.0 |
| 20260507034849 | 81 | 143 | 0.0 | 0.0 | 0.00 | 0.00 | 0.00 | 81 | 1016.3 |
| 20260507034352 | 81 | 137 | 0.0 | 0.0 | 0.00 | 0.00 | 0.00 | 81 | 1016.1 |
| 20260507033848 | 81 | 146 | 0.0 | 0.0 | 0.00 | 0.00 | 0.00 | 81 | 1016.1 |
| 20260507033349 | 82 | 152 | 0.0 | 0.0 | 0.00 | 0.00 | 0.00 | 80 | 1015.8 |
| 20260507032848 | 82 | 150 | 0.0 | 0.0 | 0.00 | 0.00 | 0.00 | 80 | 1015.8 |
| 20260507032352 | 82 | 152 | 0.0 | 0.0 | 0.00 | 0.00 | 0.00 | 80 | 1015.7 |
| 20260507031849 | 82 | 119 | 0.0 | 0.0 | 0.00 | 0.00 | 0.00 | 80 | 1015.9 |
| 20260507031352 | 82 | 159 | 0.0 | 0.0 | 0.00 | 0.00 | 0.00 | 80 | 1015.7 |
| 20260507030849 | 82 | 159 | 0.0 | 0.0 | 0.00 | 0.00 | 0.00 | 80 | 1015.7 |
| 20260507030348 | 82 | 135 | 0.0 | 0.0 | 0.00 | 0.00 | 0.00 | 79 | 1015.7 |
| 20260507025849 | 83 | 150 | 0.0 | 0.0 | 0.00 | 0.00 | 0.00 | 79 | 1015.4 |
| 20260507025353 | 83 | 354 | 0.9 | 1.7 | 0.00 | 0.00 | 0.00 | 79 | 1015.3 |
| 20260507024849 | 83 | 64 | 0.9 | 1.7 | 0.00 | 0.00 | 0.00 | 79 | 1015.4 |
| 20260507024352 | 83 | 116 | 0.0 | 0.0 | 0.00 | 0.00 | 0.00 | 78 | 1015.2 |
| 20260507023848 | 83 | 69 | 0.0 | 0.0 | 0.00 | 0.00 | 0.00 | 78 | 1015.2 |
| 20260507023349 | 84 | 152 | 0.0 | 0.0 | 0.00 | 0.00 | 0.00 | 78 | 1015.2 |
| 20260507022848 | 84 | 145 | 0.0 | 0.0 | 0.00 | 0.00 | 0.00 | 78 | 1015.3 |
| 20260507022352 | 84 | 4 | 0.9 | 1.7 | 0.00 | 0.00 | 0.00 | 77 | 1015.1 |
| 20260507021849 | 84 | 14 | 1.7 | 2.6 | 0.00 | 0.00 | 0.00 | 77 | 1015.2 |
| 20260507021352 | 84 | 68 | 0.0 | 0.0 | 0.00 | 0.00 | 0.00 | 77 | 1015.0 |
| 20260507020849 | 84 | 347 | 2.6 | 3.5 | 0.00 | 0.00 | 0.00 | 77 | 1015.0 |
| 20260507020348 | 84 | 105 | 0.0 | 0.0 | 0.00 | 0.00 | 0.00 | 77 | 1014.6 |
| 20260507015849 | 84 | 44 | 0.9 | 1.7 | 0.00 | 0.00 | 0.00 | 77 | 1014.6 |
| 20260507015353 | 84 | 66 | 0.0 | 0.0 | 0.00 | 0.00 | 0.00 | 77 | 1014.6 |
| 20260507014849 | 85 | 353 | 3.5 | 4.3 | 0.00 | 0.00 | 0.00 | 76 | 1014.9 |
| 20260507014352 | 85 | 22 | 1.7 | 2.6 | 0.00 | 0.00 | 0.00 | 76 | 1014.5 |
| 20260507013848 | 85 | 2 | 5.2 | 5.2 | 0.00 | 0.00 | 0.00 | 76 | 1014.3 |
| 20260507013349 | 85 | 38 | 1.7 | 3.5 | 0.00 | 0.00 | 0.00 | 75 | 1014.4 |
| 20260507012848 | 85 | 65 | 0.9 | 1.7 | 0.00 | 0.00 | 0.00 | 75 | 1014.3 |
| 20260507012352 | 85 | 73 | 0.0 | 0.0 | 0.00 | 0.00 | 0.00 | 75 | 1014.3 |
| 20260507011849 | 86 | 2 | 2.6 | 4.3 | 0.00 | 0.00 | 0.00 | 74 | 1014.4 |
| 20260507011352 | 86 | 65 | 0.9 | 2.6 | 0.00 | 0.00 | 0.00 | 74 | 1014.2 |
| 20260507010849 | 86 | 44 | 0.9 | 2.6 | 0.00 | 0.00 | 0.00 | 74 | 1013.8 |
| 20260507010349 | 86 | 11 | 2.6 | 4.3 | 0.00 | 0.00 | 0.00 | 74 | 1013.9 |
| 20260507005848 | 86 | 61 | 0.9 | 2.6 | 0.00 | 0.00 | 0.00 | 74 | 1013.8 |
| 20260507005352 | 86 | 68 | 1.7 | 2.6 | 0.00 | 0.00 | 0.00 | 73 | 1013.9 |
| 20260507004848 | 86 | 349 | 1.7 | 2.6 | 0.00 | 0.00 | 0.00 | 74 | 1013.9 |
| 20260507004352 | 86 | 329 | 3.5 | 5.2 | 0.00 | 0.00 | 0.00 | 73 | 1013.7 |
| 20260507003850 | 87 | 18 | 0.9 | 1.7 | 0.00 | 0.00 | 0.00 | 74 | 1013.9 |
| 20260507003349 | 87 | 357 | 3.5 | 4.3 | 0.00 | 0.00 | 0.00 | 74 | 1013.9 |
| 20260507002849 | 87 | 91 | 2.6 | 3.5 | 0.00 | 0.00 | 0.00 | 74 | 1013.6 |
| 20260507002352 | 87 | 49 | 4.3 | 8.7 | 0.00 | 0.00 | 0.00 | 74 | 1013.3 |
| 20260507001849 | 87 | 7 | 1.7 | 3.5 | 0.00 | 0.00 | 0.00 | 73 | 1013.5 |
| 20260507001353 | 88 | 30 | 2.6 | 3.5 | 0.00 | 0.00 | 0.00 | 72 | 1013.3 |
| 20260507000849 | 88 | 38 | 3.5 | 5.2 | 0.00 | 0.00 | 0.00 | 73 | 1013.1 |
| 20260507000350 | 88 | 317 | 2.6 | 3.5 | 0.00 | 0.00 | 0.00 | 70 | 1013.1 |
| 20260506235848 | 89 | 168 | 0.9 | 2.6 | 0.00 | 0.00 | 0.00 | 69 | 1013.3 |
| 20260506235352 | 89 | 38 | 1.7 | 3.5 | 0.00 | 0.00 | 0.00 | 71 | 1013.3 |
| 20260506234848 | 90 | 102 | 0.9 | 1.7 | 0.00 | 0.00 | 0.00 | 69 | 1013.4 |
| 20260506234352 | 90 | 71 | 1.7 | 3.5 | 0.00 | 0.00 | 0.00 | 70 | 1013.2 |
| 20260506233849 | 90 | 293 | 3.5 | 4.3 | 0.00 | 0.00 | 0.00 | 70 | 1013.0 |
| 20260506233349 | 90 | 194 | 0.9 | 1.7 | 0.00 | 0.00 | 0.00 | 69 | 1012.9 |
| 20260506232849 | 91 | 141 | 2.6 | 3.5 | 0.00 | 0.00 | 0.00 | 70 | 1012.8 |
| 20260506232352 | 90 | 77 | 0.0 | 0.0 | 0.00 | 0.00 | 0.00 | 69 | 1012.9 |
| 20260506231849 | 90 | 338 | 1.7 | 2.6 | 0.00 | 0.00 | 0.00 | 70 | 1012.9 |
| 20260506231352 | 90 | 34 | 2.6 | 4.3 | 0.00 | 0.00 | 0.00 | 69 | 1012.6 |
| 20260506230849 | 90 | 67 | 1.7 | 2.6 | 0.00 | 0.00 | 0.00 | 70 | 1012.3 |
| 20260506230349 | 90 | 351 | 1.7 | 2.6 | 0.00 | 0.00 | 0.00 | 69 | 1012.4 |
| 20260506225849 | 90 | 21 | 2.6 | 5.2 | 0.00 | 0.00 | 0.00 | 68 | 1012.4 |
| 20260506225352 | 90 | 37 | 0.9 | 1.7 | 0.00 | 0.00 | 0.00 | 70 | 1012.3 |
| 20260506224848 | 90 | 347 | 3.5 | 3.5 | 0.00 | 0.00 | 0.00 | 70 | 1012.4 |
| 20260506224352 | 91 | 129 | 1.7 | 4.3 | 0.00 | 0.00 | 0.00 | 69 | 1012.4 |
| 20260506223848 | 91 | 171 | 0.9 | 1.7 | 0.00 | 0.00 | 0.00 | 69 | 1012.4 |
| 20260506223349 | 91 | 78 | 1.7 | 3.5 | 0.00 | 0.00 | 0.00 | 70 | 1012.4 |
| 20260506222849 | 90 | 82 | 1.7 | 3.5 | 0.00 | 0.00 | 0.00 | 70 | 1012.4 |
| 20260506222352 | 89 | 357 | 7.8 | 9.6 | 0.00 | 0.00 | 0.00 | 70 | 1012.3 |
| 20260506221849 | 88 | 20 | 1.7 | 2.6 | 0.00 | 0.00 | 0.00 | 72 | 1012.3 |
| 20260506221352 | 89 | 64 | 3.5 | 6.1 | 0.00 | 0.00 | 0.00 | 72 | 1012.5 |
| 20260506220849 | 89 | 325 | 2.6 | 3.5 | 0.00 | 0.00 | 0.00 | 72 | 1012.3 |
| 20260506220348 | 91 | 323 | 1.7 | 3.5 | 0.00 | 0.00 | 0.00 | 69 | 1012.1 |
| 20260506215849 | 92 | 302 | 0.9 | 1.7 | 0.00 | 0.00 | 0.00 | 68 | 1011.9 |
| 20260506215353 | 91 | 45 | 4.3 | 7.8 | 0.00 | 0.00 | 0.00 | 69 | 1012.1 |
| 20260506214850 | 92 | 132 | 1.7 | 2.6 | 0.00 | 0.00 | 0.00 | 69 | 1012.1 |
| 20260506214352 | 91 | 335 | 1.7 | 4.3 | 0.00 | 0.00 | 0.00 | 69 | 1012.0 |
| 20260506213848 | 91 | 335 | 2.6 | 3.5 | 0.00 | 0.00 | 0.00 | 70 | 1012.3 |
| 20260506213349 | 92 | 6 | 3.5 | 4.3 | 0.00 | 0.00 | 0.00 | 69 | 1012.2 |
| 20260506212849 | 91 | 48 | 3.5 | 5.2 | 0.00 | 0.00 | 0.00 | 70 | 1012.1 |
| 20260506212352 | 92 | 359 | 3.5 | 6.1 | 0.00 | 0.00 | 0.00 | 68 | 1012.2 |
| 20260506211849 | 91 | 17 | 2.6 | 4.3 | 0.00 | 0.00 | 0.00 | 69 | 1012.3 |
| 20260506211352 | 90 | 40 | 0.9 | 1.7 | 0.00 | 0.00 | 0.00 | 71 | 1012.7 |
| 20260506210849 | 89 | 73 | 2.6 | 3.5 | 0.00 | 0.00 | 0.00 | 71 | 1012.5 |
| 20260506210348 | 91 | 116 | 3.5 | 5.2 | 0.00 | 0.00 | 0.00 | 70 | 1012.5 |
| 20260506205849 | 91 | 98 | 1.7 | 2.6 | 0.00 | 0.00 | 0.00 | 69 | 1012.6 |
| 20260506205353 | 91 | 319 | 2.6 | 4.3 | 0.00 | 0.00 | 0.00 | 70 | 1012.4 |
| 20260506204849 | 92 | 23 | 1.7 | 1.7 | 0.00 | 0.00 | 0.00 | 68 | 1012.6 |
| 20260506204352 | 92 | 356 | 3.5 | 4.3 | 0.00 | 0.00 | 0.00 | 69 | 1012.6 |
| 20260506203848 | 90 | 70 | 1.7 | 2.6 | 0.00 | 0.00 | 0.00 | 70 | 1012.6 |
| 20260506203349 | 91 | 44 | 5.2 | 9.6 | 0.00 | 0.00 | 0.00 | 70 | 1012.7 |
| 20260506202848 | 91 | 141 | 1.7 | 3.5 | 0.00 | 0.00 | 0.00 | 69 | 1012.6 |
| 20260506202352 | 93 | 30 | 3.5 | 5.2 | 0.00 | 0.00 | 0.00 | 69 | 1012.8 |
| 20260506201849 | 92 | 355 | 3.5 | 4.3 | 0.00 | 0.00 | 0.00 | 67 | 1012.9 |
| 20260506201352 | 92 | 172 | 0.9 | 1.7 | 0.00 | 0.00 | 0.00 | 68 | 1012.9 |
| 20260506200849 | 90 | 350 | 5.2 | 6.1 | 0.00 | 0.00 | 0.00 | 72 | 1012.8 |
| 20260506200348 | 91 | 343 | 3.5 | 5.2 | 0.00 | 0.00 | 0.00 | 69 | 1013.1 |
| 20260506195849 | 90 | 88 | 1.7 | 2.6 | 0.00 | 0.00 | 0.00 | 71 | 1013.3 |
| 20260506195352 | 90 | 77 | 0.9 | 1.7 | 0.00 | 0.00 | 0.00 | 72 | 1013.0 |
| 20260506194849 | 91 | 17 | 0.9 | 1.7 | 0.00 | 0.00 | 0.00 | 73 | 1013.0 |
| 20260506194352 | 92 | 166 | 0.0 | 0.0 | 0.00 | 0.00 | 0.00 | 71 | 1013.2 |
| 20260506193848 | 91 | 82 | 0.9 | 1.7 | 0.00 | 0.00 | 0.00 | 72 | 1013.4 |
| 20260506193349 | 90 | 73 | 0.9 | 2.6 | 0.00 | 0.00 | 0.00 | 73 | 1013.4 |
| 20260506192848 | 89 | 146 | 0.0 | 0.0 | 0.00 | 0.00 | 0.00 | 75 | 1013.4 |
| 20260506192352 | 91 | 45 | 2.6 | 6.1 | 0.00 | 0.00 | 0.00 | 73 | 1013.4 |
| 20260506191849 | 91 | 167 | 0.9 | 1.7 | 0.00 | 0.00 | 0.00 | 73 | 1013.7 |
| 20260506191352 | 90 | 21 | 4.3 | 6.1 | 0.00 | 0.00 | 0.00 | 74 | 1013.4 |
| 20260506190849 | 89 | 58 | 0.9 | 1.7 | 0.00 | 0.00 | 0.00 | 74 | 1013.5 |
| 20260506190349 | 91 | 17 | 1.7 | 2.6 | 0.00 | 0.00 | 0.00 | 72 | 1013.6 |
| 20260506185849 | 91 | 11 | 1.7 | 3.5 | 0.00 | 0.00 | 0.00 | 72 | 1013.6 |
| 20260506185352 | 89 | 34 | 1.7 | 2.6 | 0.00 | 0.00 | 0.00 | 73 | 1013.4 |
| 20260506184849 | 89 | 334 | 0.9 | 3.5 | 0.00 | 0.00 | 0.00 | 75 | 1013.9 |
| 20260506184353 | 90 | 93 | 1.7 | 3.5 | 0.00 | 0.00 | 0.00 | 74 | 1013.8 |
| 20260506183849 | 89 | 25 | 1.7 | 3.5 | 0.00 | 0.00 | 0.00 | 74 | 1013.9 |
| 20260506183349 | 89 | 18 | 2.6 | 3.5 | 0.00 | 0.00 | 0.00 | 75 | 1013.8 |
| 20260506182848 | 88 | 118 | 0.9 | 2.6 | 0.00 | 0.00 | 0.00 | 75 | 1013.9 |
| 20260506182352 | 89 | 311 | 1.7 | 3.5 | 0.00 | 0.00 | 0.00 | 76 | 1013.9 |
| 20260506181848 | 90 | 75 | 1.7 | 2.6 | 0.00 | 0.00 | 0.00 | 74 | 1013.9 |
| 20260506181352 | 91 | 20 | 1.7 | 2.6 | 0.00 | 0.00 | 0.00 | 72 | 1014.0 |
| 20260506180849 | 89 | 145 | 0.0 | 0.0 | 0.00 | 0.00 | 0.00 | 74 | 1014.2 |
| 20260506180349 | 89 | 141 | 1.7 | 2.6 | 0.00 | 0.00 | 0.00 | 75 | 1014.2 |
| 20260506175849 | 89 | 11 | 2.6 | 3.5 | 0.00 | 0.00 | 0.00 | 76 | 1014.2 |
| 20260506175352 | 89 | 2 | 2.6 | 3.5 | 0.00 | 0.00 | 0.00 | 75 | 1014.0 |
| 20260506174849 | 90 | 25 | 0.9 | 1.7 | 0.00 | 0.00 | 0.00 | 75 | 1014.4 |
| 20260506174352 | 90 | 41 | 0.9 | 1.7 | 0.00 | 0.00 | 0.00 | 75 | 1014.5 |
| 20260506173849 | 88 | 127 | 0.0 | 0.0 | 0.00 | 0.00 | 0.00 | 76 | 1014.3 |
| 20260506173349 | 88 | 170 | 0.0 | 0.0 | 0.00 | 0.00 | 0.00 | 77 | 1014.5 |
| 20260506172848 | 88 | 131 | 1.7 | 1.7 | 0.00 | 0.00 | 0.00 | 77 | 1014.5 |
| 20260506172352 | 89 | 4 | 0.9 | 2.6 | 0.00 | 0.00 | 0.00 | 76 | 1014.4 |
| 20260506171848 | 89 | 138 | 3.5 | 4.3 | 0.00 | 0.00 | 0.00 | 76 | 1014.3 |
| 20260506171352 | 90 | 11 | 1.7 | 2.6 | 0.00 | 0.00 | 0.00 | 75 | 1014.3 |
| 20260506170849 | 89 | 110 | 0.9 | 1.7 | 0.00 | 0.00 | 0.00 | 75 | 1014.4 |
| 20260506170349 | 89 | 71 | 1.7 | 2.6 | 0.00 | 0.00 | 0.00 | 76 | 1014.5 |
| 20260506165849 | 88 | 35 | 0.9 | 2.6 | 0.00 | 0.00 | 0.00 | 76 | 1014.5 |
| 20260506165352 | 89 | 3 | 1.7 | 3.5 | 0.00 | 0.00 | 0.00 | 75 | 1014.4 |
| 20260506164849 | 88 | 130 | 0.0 | 0.0 | 0.00 | 0.00 | 0.00 | 75 | 1014.5 |
| 20260506164353 | 88 | 138 | 0.0 | 0.0 | 0.00 | 0.00 | 0.00 | 76 | 1014.4 |
| 20260506163849 | 88 | 29 | 0.9 | 1.7 | 0.00 | 0.00 | 0.00 | 77 | 1014.3 |
| 20260506163349 | 87 | 22 | 1.7 | 2.6 | 0.00 | 0.00 | 0.00 | 78 | 1014.2 |
| 20260506162848 | 86 | 13 | 0.9 | 1.7 | 0.00 | 0.00 | 0.00 | 79 | 1014.2 |
| 20260506162352 | 86 | 114 | 0.0 | 0.0 | 0.00 | 0.00 | 0.00 | 79 | 1014.3 |
| 20260506161848 | 86 | 33 | 0.9 | 1.7 | 0.00 | 0.00 | 0.00 | 80 | 1014.2 |
| 20260506161352 | 85 | 146 | 0.0 | 0.0 | 0.00 | 0.00 | 0.00 | 81 | 1014.2 |
| 20260506160849 | 85 | 65 | 0.9 | 1.7 | 0.00 | 0.00 | 0.00 | 81 | 1014.3 |
| 20260506160349 | 85 | 180 | 0.0 | 0.0 | 0.00 | 0.00 | 0.00 | 81 | 1014.2 |
| 20260506155849 | 85 | 101 | 0.0 | 0.0 | 0.00 | 0.00 | 0.00 | 81 | 1014.3 |
| 20260506155352 | 84 | 145 | 0.0 | 0.0 | 0.00 | 0.00 | 0.00 | 82 | 1014.1 |
| 20260506154849 | 83 | 146 | 0.0 | 0.0 | 0.00 | 0.00 | 0.00 | 82 | 1014.1 |
| 20260506154352 | 83 | 40 | 0.0 | 0.0 | 0.00 | 0.00 | 0.00 | 82 | 1013.7 |
| 20260506153849 | 85 | 142 | 1.7 | 2.6 | 0.00 | 0.00 | 0.00 | 81 | 1013.7 |
| 20260506153349 | 85 | 123 | 0.0 | 0.0 | 0.00 | 0.00 | 0.00 | 81 | 1014.0 |
| 20260506152848 | 85 | 150 | 0.0 | 0.0 | 0.00 | 0.00 | 0.00 | 81 | 1013.5 |
| 20260506152352 | 84 | 136 | 0.9 | 2.6 | 0.00 | 0.00 | 0.00 | 82 | 1013.6 |
| 20260506151848 | 83 | 164 | 0.0 | 0.0 | 0.00 | 0.00 | 0.00 | 83 | 1013.6 |
| 20260506151352 | 82 | 152 | 0.0 | 0.0 | 0.00 | 0.00 | 0.00 | 84 | 1013.5 |
| 20260506150848 | 81 | 151 | 0.0 | 0.0 | 0.00 | 0.00 | 0.00 | 84 | 1013.4 |
| 20260506150349 | 81 | 118 | 0.0 | 0.0 | 0.00 | 0.00 | 0.00 | 85 | 1013.5 |
| 20260506145849 | 81 | 195 | 0.0 | 0.0 | 0.00 | 0.00 | 0.00 | 86 | 1013.6 |
| 20260506145352 | 80 | 97 | 2.6 | 3.5 | 0.00 | 0.00 | 0.00 | 86 | 1013.2 |
| 20260506144849 | 81 | 136 | 0.9 | 2.6 | 0.00 | 0.00 | 0.00 | 86 | 1013.4 |
| 20260506144352 | 80 | 181 | 0.0 | 0.0 | 0.00 | 0.00 | 0.00 | 87 | 1013.5 |
| 20260506143849 | 79 | 171 | 0.0 | 0.0 | 0.00 | 0.00 | 0.00 | 88 | 1013.4 |
| 20260506143349 | 80 | 179 | 0.0 | 0.0 | 0.00 | 0.00 | 0.00 | 88 | 1013.5 |
| 20260506142849 | 78 | 156 | 1.7 | 2.6 | 0.00 | 0.00 | 0.00 | 89 | 1013.2 |
| 20260506142352 | 78 | 152 | 0.0 | 0.0 | 0.00 | 0.00 | 0.00 | 90 | 1013.6 |
| 20260506141848 | 78 | 149 | 0.9 | 2.6 | 0.00 | 0.00 | 0.00 | 90 | 1013.4 |
| 20260506141352 | 78 | 146 | 0.0 | 0.0 | 0.00 | 0.00 | 0.00 | 91 | 1013.5 |
| 20260506140848 | 78 | 130 | 0.9 | 1.7 | 0.00 | 0.00 | 0.00 | 91 | 1013.5 |
| 20260506140349 | 77 | 150 | 0.9 | 1.7 | 0.00 | 0.00 | 0.00 | 92 | 1013.3 |
| 20260506135849 | 77 | 139 | 1.7 | 2.6 | 0.00 | 0.00 | 0.00 | 92 | 1013.7 |
| 20260506135352 | 77 | 123 | 0.0 | 0.0 | 0.00 | 0.00 | 0.00 | 92 | 1013.5 |
| 20260506134849 | 77 | 133 | 0.0 | 0.0 | 0.00 | 0.00 | 0.00 | 92 | 1013.4 |
| 20260506134352 | 77 | 146 | 0.0 | 0.0 | 0.00 | 0.00 | 0.00 | 91 | 1013.6 |
| 20260506133849 | 78 | 152 | 0.0 | 0.0 | 0.00 | 0.00 | 0.00 | 91 | 1013.7 |
| 20260506133348 | 77 | 152 | 0.0 | 0.0 | 0.00 | 0.00 | 0.00 | 90 | 1013.4 |
| 20260506132849 | 77 | 166 | 0.0 | 0.0 | 0.00 | 0.00 | 0.00 | 91 | 1013.2 |
| 20260506132353 | 77 | 150 | 0.0 | 0.0 | 0.00 | 0.00 | 0.00 | 91 | 1013.3 |
| 20260506131849 | 77 | 151 | 0.0 | 0.0 | 0.00 | 0.00 | 0.00 | 91 | 1013.3 |
| 20260506131352 | 77 | 148 | 0.0 | 0.0 | 0.00 | 0.00 | 0.00 | 91 | 1013.3 |
| 20260506130848 | 77 | 152 | 0.0 | 0.0 | 0.00 | 0.00 | 0.00 | 91 | 1013.2 |
| 20260506130349 | 77 | 145 | 0.0 | 0.0 | 0.00 | 0.00 | 0.00 | 91 | 1013.1 |
| 20260506125848 | 77 | 157 | 0.0 | 0.0 | 0.00 | 0.00 | 0.00 | 91 | 1013.2 |
| 20260506125352 | 77 | 167 | 0.0 | 0.0 | 0.00 | 0.00 | 0.00 | 91 | 1013.2 |
| 20260506124849 | 77 | 153 | 0.9 | 1.7 | 0.00 | 0.00 | 0.00 | 91 | 1013.3 |
| 20260506124352 | 77 | 150 | 0.0 | 0.0 | 0.00 | 0.00 | 0.00 | 91 | 1012.9 |
| 20260506123849 | 77 | 163 | 0.0 | 0.0 | 0.00 | 0.00 | 0.00 | 91 | 1013.0 |
| 20260506123348 | 77 | 163 | 0.0 | 0.0 | 0.00 | 0.00 | 0.00 | 91 | 1012.8 |
| 20260506122849 | 77 | 142 | 0.9 | 1.7 | 0.00 | 0.00 | 0.00 | 90 | 1012.8 |
| 20260506122352 | 77 | 147 | 0.0 | 0.0 | 0.00 | 0.00 | 0.00 | 90 | 1012.8 |
| 20260506121848 | 77 | 152 | 0.0 | 0.0 | 0.00 | 0.00 | 0.00 | 90 | 1013.1 |
| 20260506121352 | 77 | 150 | 0.0 | 0.0 | 0.00 | 0.00 | 0.00 | 90 | 1012.9 |
| 20260506120849 | 77 | 143 | 0.0 | 0.0 | 0.00 | 0.00 | 0.00 | 90 | 1012.8 |
| 20260506120349 | 77 | 155 | 0.0 | 0.0 | 0.00 | 0.00 | 0.00 | 90 | 1012.8 |
| 20260506115849 | 77 | 146 | 0.0 | 0.0 | 0.00 | 0.00 | 0.00 | 90 | 1013.0 |
| 20260506115352 | 77 | 154 | 0.0 | 0.0 | 0.00 | 0.00 | 0.00 | 90 | 1012.8 |
| 20260506114849 | 77 | 153 | 0.0 | 0.0 | 0.00 | 0.00 | 0.00 | 90 | 1012.7 |
| 20260506114352 | 77 | 146 | 0.0 | 0.0 | 0.00 | 0.00 | 0.00 | 89 | 1012.4 |